Wind_Speed
10 12 15 17 18 19 17 16 12 7 5 7 9 10 9 6 4 4 1 2 4 4 10 11 5 3 4 4 3 2 2 3 7 9 5 3 5 2 4 5 4 3 4 14 27
10 13 15 17 18 16 14 16 12 6 5 7 8 8 7 6 3 9 11 8 2 1 4 15 4 7 2 3 3 3 3 5 4 1 4 4 5 7 5 2 4 6 9 25 27
11 13 14 17 17 14 12 13 12 9 6 7 6 5 6 8 1 4 11 8 3 6 13 8 11 5 5 3 3 5 4 3 4 3 6 4 4 3 9 2 5 12 18 18 21
11 12 14 17 17 11 10 11 10 9 7 5 5 7 7 1 2 6 10 10 6 4 6 8 5 5 5 4 1 3 7 4 3 3 7 5 4 4 3 5 7 15 20 15 14
10 11 14 16 15 10 8 9 10 9 7 7 9 10 1 4 2 5 7 6 4 4 5 3 3 5 4 2 4 2 3 8 8 9 5 8 9 6 4 3 14 14 13 12 9
9 10 12 14 14 11 7 6 6 7 7 6 6 9 2 3 7 5 4 3 3 4 5 4 4 3 4 4 3 4 7 7 6 6 5 7 4 7 2 8 14 18 18 10 8
9 9 11 13 13 12 10 9 9 8 7 7 7 6 3 2 7 5 5 2 1 5 3 3 7 4 2 3 2 3 4 4 8 5 5 6 2 5 7 8 15 13 14 14 11
8 8 10 12 13 13 13 12 9 10 10 8 7 2 1 4 7 4 4 2 1 4 5 6 6 4 1 1 3 2 3 3 5 6 1 4 7 3 9 14 9 12 10 12 12
8 8 9 10 13 14 15 17 11 11 15 8 3 4 1 5 3 5 3 4 4 5 3 4 1 3 2 3 4 5 4 5 3 5 2 3 4 1 4 8 11 9 10 9 7
8 8 9 11 13 15 16 15 6 7 3 1 1 2 3 2 4 7 11 11 5 1 3 2 3 2 3 3 11 6 4 3 5 4 3 5 4 4 4 7 9 9 8 8 7
8 7 9 12 14 13 13 6 6 5 7 2 3 2 4 7 5 8 7 7 6 5 1 1 3 7 13 3 2 5 5 4 2 1 4 4 4 7 6 5 7 6 6 5 7
9 7 9 13 12 7 5 4 3 1 4 3 3 4 7 4 2 2 11 4 3 0 7 1 8 3 3 5 8 9 6 3 1 2 5 5 3 2 1 3 6 8 7 9 6
11 9 10 9 4 2 4 4 1 1 0 4 5 3 5 6 3 5 2 4 2 4 5 5 2 7 7 2 7 2 6 4 5 3 5 6 5 2 2 2 1 5 5 4 10
9 10 8 5 2 3 3 2 1 2 4 7 4 2 2 2 5 4 1 0 5 3 3 3 5 1 5 5 3 3 1 4 9 5 5 2 4 5 5 6 5 6 7 8 8
7 10 5 7 2 2 2 2 1 1 5 6 7 1 6 2 2 6 5 6 2 4 5 3 7 7 9 3 2 3 4 6 4 6 4 4 5 6 3 7 8 9 7 6 8
6 8 5 1 2 2 1 1 1 6 3 6 4 6 5 4 3 1 4 5 1 3 5 1 3 4 3 4 6 6 2 8 6 4 2 1 5 4 5 7 4 4 6 7 7
3 5 5 3 0 2 2 3 5 5 2 6 3 4 3 3 4 3 3 6 3 4 5 2 3 4 4 4 2 1 4 3 3 3 5 3 3 8 3 3 4 10 9 6 6
4 2 3 3 1 2 2 5 6 3 4 3 3 5 3 4 3 6 3 4 4 3 3 3 4 2 5 0 2 3 4 5 5 4 3 2 5 5 3 5 2 7 7 6 6
2 3 1 2 1 3 5 5 4 3 3 6 5 4 6 5 3 4 4 4 2 4 2 2 2 2 2 1 1 1 4 3 7 4 4 3 4 4 5 5 8 8 7 5 5
4 2 2 1 3 1 5 3 2 2 3 2 3 2 5 6 5 3 4 3 6 4 4 1 2 1 3 1 2 3 4 4 4 3 2 4 1 3 5 2 2 4 5 3 2
2 2 0 3 3 5 3 4 2 1 1 1 3 4 3 2 2 4 4 2 3 6 2 4 2 3 1 3 1 3 2 6 3 4 4 4 4 4 3 3 5 5 6 6 6
2 1 2 6 3 2 2 3 2 2 1 1 1 1 2 3 3 1 0 2 4 2 2 1 1 1 1 3 1 1 2 4 4 4 1 4 3 3 4 4 3 4 4 3 4
1 2 2 1 1 0 2 2 2 3 2 1 1 1 1 2 2 1 2 1 4 3 2 4 3 2 6 4 4 3 2 1 1 2 3 4 4 3 5 8 7 7 6 4 2
1 2 3 3 1 5 5 3 2 1 2 2 2 0 2 1 1 2 3 3 4 3 2 1 2 3 5 2 1 2 3 3 3 3 2 2 4 5 4 6 7 7 7 7 5
1 3 3 2 2 2 2 7 4 3 2 3 2 3 2 1 1 1 3 3 3 5 2 3 2 2 3 5 2 2 3 2 3 1 3 3 5 3 4 5 4 3 5 7 7
2 2 1 2 1 4 1 6 8 4 6 3 3 5 4 4 4 4 1 1 1 4 4 4 2 2 3 2 3 3 5 6 3 2 4 2 1 3 4 5 6 6 6 7 6
3 1 3 1 2 3 4 5 6 7 3 3 4 2 2 4 4 2 1 1 2 1 1 1 3 2 4 1 4 2 3 3 3 3 4 3 4 5 3 6 4 4 4 5 5
Wind_Direction
347 348 348 347 351 350 353 350 348 338 339 354 353 349 351 351 15 15 43 329 278 168 186 184 165 125 71 154 218 190 62 197 201 166 177 146 137 11 46 95 37 50 128 134 153
348 349 352 355 357 355 5 9 14 21 9 357 354 354 3 8 10 35 345 321 279 160 241 175 142 111 169 191 196 151 147 211 227 260 175 214 147 152 107 184 59 84 91 132 146
343 348 354 357 1 4 14 16 19 19 3 357 358 1 352 348 49 338 344 353 325 178 197 182 138 111 187 152 205 189 193 245 272 343 312 198 184 153 131 116 196 156 147 147 145
341 348 355 358 3 8 14 14 16 16 8 7 355 339 334 45 269 330 340 337 349 144 144 126 100 110 194 178 266 180 223 197 278 47 344 259 225 118 164 180 161 157 151 151 153
339 346 354 358 3 8 7 13 14 20 20 14 3 348 101 41 250 316 322 344 332 177 161 97 115 134 156 121 23 177 212 244 275 297 276 269 212 160 187 188 128 146 147 153 152
332 340 348 357 1 6 348 334 346 348 348 349 349 7 15 57 318 344 331 314 7 106 145 149 177 196 141 129 98 316 237 254 305 289 252 221 237 137 133 133 127 153 169 163 155
318 329 340 349 0 352 344 333 321 314 310 325 335 348 45 324 325 323 339 318 266 193 124 207 176 65 160 80 198 251 230 293 279 276 260 161 167 188 143 144 138 156 166 182 176
306 314 326 335 344 341 336 330 316 309 308 308 320 336 260 321 322 287 220 220 148 147 135 150 128 103 64 337 133 147 121 123 267 219 197 140 204 208 159 142 155 149 169 181 187
300 300 310 319 326 327 327 325 300 311 324 291 275 187 280 309 338 44 222 146 95 101 79 124 56 164 76 108 96 175 177 183 241 182 201 114 159 182 180 164 158 173 165 183 168
311 301 305 311 318 320 325 333 352 356 351 35 259 314 330 272 170 131 111 101 83 270 262 187 207 121 135 158 178 159 193 172 194 198 65 89 114 145 187 161 173 165 165 179 178
339 313 308 312 313 315 324 344 18 348 35 299 274 244 285 306 167 195 172 143 196 208 51 271 149 150 155 196 132 167 151 134 262 144 93 116 135 176 190 155 169 177 147 170 192
356 338 319 315 310 307 331 74 112 204 318 228 267 283 280 294 299 195 153 174 229 350 138 73 70 309 196 226 252 231 152 144 349 142 91 126 90 13 154 227 190 170 181 196 170
356 349 338 334 347 39 62 110 150 347 171 296 224 229 270 337 313 286 179 168 154 64 65 108 192 231 215 138 162 56 146 179 148 114 42 97 7 220 206 62 120 231 204 199 188
351 353 355 348 51 18 56 42 172 129 63 305 339 284 153 277 319 285 51 352 22 76 43 91 300 88 89 77 342 78 87 146 140 98 150 93 227 243 228 187 196 184 191 199 174
343 352 359 33 25 63 341 7 128 88 46 288 303 275 306 165 313 334 346 16 10 23 54 299 4 21 52 337 293 95 353 139 94 88 97 341 64 256 162 223 207 211 197 184 174
338 351 2 351 58 50 5 60 90 44 283 329 312 354 13 4 349 343 358 26 63 90 45 315 357 42 312 298 56 6 58 46 47 84 49 278 115 270 199 203 216 183 205 186 171
318 14 11 343 298 81 86 41 29 98 336 307 326 349 343 302 10 11 52 20 47 47 17 40 41 349 351 75 9 128 58 49 22 20 201 317 58 246 281 319 240 191 181 163 149
297 344 21 12 37 126 88 51 66 243 265 323 333 317 359 6 7 15 32 25 11 69 58 90 336 94 325 204 211 150 159 149 168 160 229 1 226 262 336 332 43 98 126 142 145
323 289 313 334 162 154 75 54 208 207 322 335 318 39 340 357 42 67 32 341 310 10 104 117 337 321 167 242 194 234 58 196 102 35 63 223 281 340 346 25 59 92 106 137 159
329 307 285 98 150 41 75 177 215 269 335 347 340 54 17 336 27 44 16 349 330 13 6 273 51 25 304 5 329 108 172 58 22 130 213 282 257 229 334 329 104 125 147 171 167
325 50 259 166 135 48 124 211 185 223 103 359 324 325 17 23 8 14 335 348 338 316 5 3 111 280 61 20 212 10 51 57 101 147 176 162 278 234 269 282 185 197 204 202 193
4 7 169 162 42 74 140 172 195 167 165 262 213 278 315 355 20 84 186 235 341 294 349 170 151 93 42 322 303 1 95 135 137 213 164 136 279 297 310 24 126 201 220 216 185
354 252 155 218 154 22 275 271 172 161 176 187 277 176 290 312 4 24 350 252 357 33 46 340 5 30 349 3 29 17 355 14 7 45 192 121 238 307 20 32 7 42 31 14 344
43 349 327 60 96 142 161 210 238 232 190 189 219 112 319 288 283 336 345 356 354 0 311 21 63 130 187 222 174 219 208 159 125 90 157 204 135 336 42 68 42 50 59 52 62
83 243 185 269 293 188 173 164 158 234 261 196 206 200 172 282 351 12 351 331 334 339 39 98 114 116 259 255 251 260 267 205 193 216 155 158 132 256 143 99 74 59 53 51 41
197 155 6 221 274 164 194 231 178 183 156 233 220 194 163 185 190 201 190 319 280 333 25 4 317 21 288 331 359 293 280 251 238 276 299 275 328 140 63 61 43 35 56 54 39
203 178 121 252 156 125 223 198 222 149 205 171 181 147 229 209 179 197 224 180 228 239 262 133 133 100 261 258 346 335 227 198 193 179 167 168 183 156 112 109 111 107 103 104 89
Height
827 824 822 819 817 814 810 807 804 802 801 800 799 797 795 793 792 791 791 791 789 789 791 792 794 795 796 799 800 798 813 814 804 799 791 783 786 782 783 789 793 793 795 796 803
826 824 821 819 816 812 809 806 804 802 802 801 799 798 796 794 793 792 793 789 790 788 790 791 793 794 801 800 801 804 813 807 794 788 787 786 783 784 791 795 798 795 797 799 803
826 823 821 818 815 812 810 807 805 803 802 801 799 798 797 795 795 795 792 790 789 790 790 790 791 794 799 798 799 801 808 798 790 788 786 788 787 780 789 794 793 794 797 801 804
825 823 821 818 815 812 810 807 805 803 802 800 799 798 796 794 800 796 793 790 788 789 790 789 791 797 799 801 797 801 796 794 788 790 789 788 787 784 787 786 784 789 793 800 805
824 822 820 817 815 812 811 808 806 803 801 800 800 797 796 798 798 794 793 791 789 789 789 790 793 797 800 798 798 800 795 793 789 793 792 786 787 786 790 785 785 793 797 802 807
823 821 819 816 814 812 809 807 805 804 801 800 799 798 797 800 796 794 793 792 791 791 792 792 794 793 797 797 803 801 798 795 790 791 790 790 786 783 791 790 791 795 799 803 806
821 820 818 815 814 811 808 806 806 803 802 801 798 798 798 800 795 793 793 793 792 792 792 793 793 795 798 798 798 799 802 799 795 790 789 784 796 787 785 790 793 798 800 803 806
819 818 816 814 812 810 807 806 805 803 801 800 799 798 798 796 794 793 793 793 793 793 794 794 795 798 799 798 798 802 801 811 793 786 784 787 804 789 788 790 797 797 802 804 806
817 816 815 813 811 809 806 803 803 801 799 797 797 795 796 794 791 794 792 793 793 795 795 796 797 798 800 798 807 802 815 809 796 784 786 790 798 789 789 791 797 799 800 804 805
815 815 813 811 809 807 804 802 801 800 798 797 797 801 792 792 790 791 792 795 795 795 796 796 797 797 798 798 800 809 808 801 802 789 785 793 795 793 793 794 796 799 801 805 804
813 813 812 810 808 806 804 802 804 804 799 803 800 797 793 791 790 791 792 795 795 795 793 791 796 799 795 792 789 796 799 798 794 785 791 795 799 798 796 797 800 799 796 801 805
813 812 811 809 806 805 805 807 810 811 808 800 798 796 790 789 790 788 790 792 790 791 795 796 800 790 794 796 795 793 796 797 791 787 790 799 802 800 797 796 797 798 801 805 806
813 811 809 807 806 806 806 809 809 809 811 801 795 795 793 788 790 787 786 785 787 789 792 797 793 791 792 793 792 796 797 801 794 791 797 802 813 805 798 796 799 800 801 802 803
812 810 808 806 808 808 808 809 808 809 835 812 798 794 793 791 791 783 783 785 784 791 791 797 794 787 789 793 793 793 793 792 798 801 826 807 844 818 808 805 804 806 805 804 806
811 810 808 805 806 808 811 809 809 809 863 808 800 791 789 793 792 787 783 782 790 788 795 798 799 795 793 796 793 796 793 793 796 811 815 814 837 817 811 811 808 809 807 806 805
811 810 808 807 806 807 809 809 810 841 853 819 801 802 798 794 793 789 789 787 789 793 797 797 793 796 797 789 788 795 795 800 810 817 844 816 832 821 817 802 800 803 805 805 806
810 809 808 807 807 806 807 810 836 849 819 814 810 804 806 802 797 795 802 806 808 812 805 801 803 802 798 798 798 803 807 838 842 854 843 828 838 814 800 796 797 798 804 807 808
810 809 808 808 807 808 807 820 842 825 820 811 809 806 804 802 798 803 804 810 805 805 814 823 824 809 805 804 803 803 805 836 831 842 845 827 832 818 804 803 799 799 804 807 811
809 809 807 807 807 808 814 850 838 828 820 820 812 813 812 805 805 808 814 814 808 807 810 810 808 802 803 804 806 795 819 810 832 845 860 846 813 807 806 804 803 804 806 808 809
810 809 808 807 808 809 825 829 827 820 819 818 818 813 818 815 811 809 817 814 814 809 809 804 810 803 801 802 800 799 805 815 839 829 826 837 813 844 824 805 803 804 806 807 808
810 811 808 809 808 817 836 834 819 817 818 820 819 818 817 818 817 820 820 816 815 812 809 811 813 808 805 809 808 807 808 811 820 829 827 829 833 815 811 805 804 804 804 804 806
811 814 809 809 820 833 829 816 817 816 816 817 817 816 817 816 817 816 815 817 816 815 811 813 814 828 808 809 808 806 802 811 830 815 828 828 840 809 807 803 801 801 802 803 805
815 813 810 810 818 828 821 817 815 816 815 815 815 814 812 814 815 812 814 813 814 814 815 814 818 837 813 808 807 810 808 811 817 821 813 821 839 808 808 811 811 808 808 809 809
815 818 813 812 815 816 816 816 817 815 813 813 813 813 814 812 810 813 813 813 814 813 812 815 824 818 824 810 813 811 809 811 815 838 820 820 820 815 814 815 816 816 815 814 812
816 813 814 816 812 812 812 813 814 815 815 813 813 812 814 816 814 815 814 814 812 812 812 816 818 834 820 818 814 810 810 810 818 809 812 814 815 811 813 815 816 816 817 816 817
814 814 816 815 811 809 812 814 809 809 813 812 813 810 811 813 814 816 817 819 817 816 816 821 820 819 814 812 814 814 815 816 814 810 812 813 814 814 817 819 821 821 820 821 821
809 809 809 811 811 813 811 805 807 806 807 807 809 811 812 813 814 815 817 819 817 817 819 819 827 837 817 816 822 817 803 813 813 811 807 813 813 814 819 821 822 823 823 823 823